SQ4MUI-13 Weather Reports


time (UTC)temp
C
wind
direction
speed
KPH
gust
KPH
rain 1hr
cm
rain 24hr
cm
rain mn
cm
humidity
%
barometer
mb
20260906010140 -17 0.0 0.0 0.00 0.00 0.00 10 1012.4
20260906005137 -17 0.0 0.0 0.00 0.00 0.00 10 1012.4
20260906004133 -17 0.0 0.0 0.00 0.00 0.00 10 1012.5
20260905233145 -17 0.0 0.0 0.00 0.00 0.00 10 1012.2
20260905232142 -17 0.0 0.0 0.00 0.00 0.00 10 1012.2
20260905231139 -17 0.0 0.0 0.00 0.00 0.00 10 1012.2
20260905230135 -17 0.0 0.0 0.00 0.00 0.00 10 1012.2
20260905225133 -17 0.0 0.0 0.00 0.00 0.00 10 1012.2
20260905224130 -17 0.0 0.0 0.00 0.00 0.00 10 1012.2
20260905223127 -17 0.0 0.0 0.00 0.00 0.00 10 1012.1
20260905222124 -17 0.0 0.0 0.00 0.00 0.00 10 1012.1
20260905221120 -17 0.0 0.0 0.00 0.00 0.00 10 1012.1
20260905220117 -17 0.0 0.0 0.00 0.00 0.00 10 1012.2
20260905215114 -17 0.0 0.0 0.00 0.00 0.00 10 1012.2
20260905214111 -17 0.0 0.0 0.00 0.00 0.00 10 1012.3
20260905213108 -17 0.0 0.0 0.00 0.00 0.00 10 1012.4
20260905212105 -17 0.0 0.0 0.00 0.00 0.00 10 1012.3
20260905211102 -17 0.0 0.0 0.00 0.00 0.00 10 1012.2
20260905210057 -17 0.0 0.0 0.00 0.00 0.00 10 1012.3
20260905205054 -17 0.0 0.0 0.00 0.00 0.00 10 1012.2
20260905204051 -17 0.0 0.0 0.00 0.00 0.00 10 1012.2
20260905203048 -17 0.0 0.0 0.00 0.00 0.00 10 1012.2
20260905202045 -17 0.0 0.0 0.00 0.00 0.00 10 1012.3
20260905201042 -17 0.0 0.0 0.00 0.00 0.00 10 1012.2
20260905200039 -17 0.0 0.0 0.00 0.00 0.00 10 1012.3
20260905195036 -17 0.0 0.0 0.00 0.00 0.00 10 1012.4
20260905194033 -17 0.0 0.0 0.00 0.00 0.00 10 1012.4
20260905193030 -17 0.0 0.0 0.00 0.00 0.00 10 1012.4
20260905192027 -17 0.0 0.0 0.00 0.00 0.00 10 1012.5
20260905191024 -17 0.0 0.0 0.00 0.00 0.00 10 1012.5
20260905190021 -17 0.0 0.0 0.00 0.00 0.00 10 1012.6
20260905185018 -17 0.0 0.0 0.00 0.00 0.00 10 1012.7
20260905184015 -17 0.0 0.0 0.00 0.00 0.00 10 1012.6
20260905183012 -17 0.0 0.0 0.00 0.00 0.00 10 1012.6
20260905182009 -17 0.0 0.0 0.00 0.00 0.00 10 1012.6
20260905181006 -17 0.0 0.0 0.00 0.00 0.00 10 1012.6
20260905180002 -17 0.0 0.0 0.00 0.00 0.00 10 1012.8
20260905174957 -17 0.0 0.0 0.00 0.00 0.00 10 1012.9
20260905173954 -17 0.0 0.0 0.00 0.00 0.00 10 1013.2
20260905172951 -17 0.0 0.0 0.00 0.00 0.00 10 1013.4
20260905171948 -17 0.0 0.0 0.00 0.00 0.00 10 1013.4
20260905170945 -17 0.0 0.0 0.00 0.00 0.00 10 1013.3
20260905165942 -17 0.0 0.0 0.00 0.00 0.00 10 1013.4
20260905164939 -17 0.0 0.0 0.00 0.00 0.00 10 1013.4
20260905164058 -17 0.0 0.0 0.00 0.00 0.00 80 1012.1
20260905163055 -17 0.0 0.0 0.00 0.00 0.00 79 1011.6
20260905162051 -17 0.0 0.0 0.00 0.00 0.00 75 1011.7
20260905161048 -17 0.0 0.0 0.00 0.00 0.00 68 1011.9
20260905160045 -17 0.0 0.0 0.00 0.00 0.00 60 1011.3
20260905155042 -17 0.0 0.0 0.00 0.00 0.00 56 1011.3
20260905154038 -17 0.0 0.0 0.00 0.00 0.00 52 1011.2
20260905153035 -17 0.0 0.0 0.00 0.00 0.00 61 1010.9
20260905152032 -17 0.0 0.0 0.00 0.00 0.00 62 1011.0
20260905151029 -17 0.0 0.0 0.00 0.00 0.00 57 1011.0
20260905150026 -17 0.0 0.0 0.00 0.00 0.00 55 1010.9
20260905145023 -17 0.0 0.0 0.00 0.00 0.00 51 1011.0
20260905144020 -17 0.0 0.0 0.00 0.00 0.00 52 1010.9
20260905143017 -17 0.0 0.0 0.00 0.00 0.00 54 1010.8
20260905142014 -17 0.0 0.0 0.00 0.00 0.00 53 1010.7
20260905141011 -17 0.0 0.0 0.00 0.00 0.00 52 1010.7
20260905140008 -17 0.0 0.0 0.00 0.00 0.00 49 1010.7
20260905135005 -17 0.0 0.0 0.00 0.00 0.00 50 1011.0
20260905134002 -17 0.0 0.0 0.00 0.00 0.00 53 1010.6
20260905132957 -17 0.0 0.0 0.00 0.00 0.00 53 1010.8
20260905131954 -17 0.0 0.0 0.00 0.00 0.00 53 1010.8
20260905130951 -17 0.0 0.0 0.00 0.00 0.00 57 1010.6
20260905125948 -17 0.0 0.0 0.00 0.00 0.00 62 1010.8
20260905124945 -17 0.0 0.0 0.00 0.00 0.00 62 1010.8
20260905123942 -17 0.0 0.0 0.00 0.00 0.00 62 1010.5
20260905122938 -17 0.0 0.0 0.00 0.00 0.00 60 1011.0
20260905121935 -17 0.0 0.0 0.00 0.00 0.00 60 1010.4
20260905120932 -17 0.0 0.0 0.00 0.00 0.00 61 1010.8
20260905115929 -17 0.0 0.0 0.00 0.00 0.00 61 1010.6
20260905114926 -17 0.0 0.0 0.00 0.00 0.00 57 1010.7
20260905113923 -17 0.0 0.0 0.00 0.00 0.00 56 1010.0
20260905112920 -17 0.0 0.0 0.00 0.00 0.00 62 1010.1
20260905111917 -17 0.0 0.0 0.00 0.00 0.00 70 1010.1
20260905110914 -17 0.0 0.0 0.00 0.00 0.00 73 1010.5
20260905105911 -17 0.0 0.0 0.00 0.00 0.00 72 1010.0
20260905104908 -17 0.0 0.0 0.00 0.00 0.00 80 1010.3
20260905103905 -17 0.0 0.0 0.00 0.00 0.00 79 1010.2
20260905102902 -17 0.0 0.0 0.00 0.00 0.00 75 1010.1
20260905101857 -17 0.0 0.0 0.00 0.00 0.00 77 1010.3
20260905100854 -17 0.0 0.0 0.00 0.00 0.00 81 1010.0